Flag for Canada Weather past 2 weeks in St. John's, Newfoundland and Labrador, Canada

Now
34 °F

Passing clouds.


Feels Like: 26 °F
Forecast: 33 / 42 °F
Wind: 10 mph from South

Location: St. John's

Current Time: Apr 27, 2015 at 4:45:44 AM

Latest Report: Apr 27, 2015 at 4:30 AM


Visibility: 15 mi

Pressure: 29.66 "Hg

Humidity: 93%

Dew point: 32 °F

Location of St. John'sLocation

Historic Weather in St. John's — Graph

°F

St. John's temperature yesterday

Maximum temperature yesterday: 41 °F (at 4:30 AM)
Minimum temperature yesterday: 32 °F (at 12:30 AM)
Average temperature yesterday: 37 °F

Past Weeks' High & Low Weather Summary

 TemperatureHumidityPressure
High52 °F (Apr 14, 12:30 PM)100% (Apr 12, 11:30 PM)30.34 "Hg (Apr 12, 11:30 PM)
Low19 °F (Apr 16, 7:30 PM)41% (Apr 13, 1:30 PM)29.40 "Hg (Apr 12, 3:30 AM)
Average32 °F83%29.92 "Hg
* Reported Apr 12 3:30 AM — Apr 27 3:30 AM, St. John's, Weather by CustomWeather, © 2015

Note: Actual official high and low records may vary slightly from our data, if they occured in-between our weather recording intervals... More about our weather records

Advertising

St. John's weather history for previous 24 hours

 ConditionsComfort  
Time TempWeatherWind HumidityBarometerVisibility
3:30 AM
Mon, Apr 27
34 °FOvercast.13 mph100%29.65 "Hg15 mi
2:30 AM36 °FDrizzle. Overcast.14 mph93%29.62 "Hg15 mi
1:30 AM34 °FDrizzle. Low clouds.15 mph100%29.60 "Hg15 mi
12:30 AM36 °FDrizzle. Low clouds.12 mph100%29.56 "Hg15 mi
11:30 PM
Sun, Apr 26
34 °FChilly.14 mph100%29.52 "Hg2 mi
11:15 PM34 °FDrizzle. Fog.7 mph100%29.51 "Hg1 mi
10:30 PM34 °FLight rain. Fog.13 mph100%29.50 "Hg0 mi
9:30 PM36 °FLight rain. Fog.18 mph100%29.50 "Hg1 mi
8:30 PM36 °FLight rain. Fog.15 mph100%29.53 "Hg1 mi
8:19 PM36 °FLight rain. Fog.18 mph100%29.53 "Hg2 mi
7:30 PM36 °FLight rain. Fog.15 mph100%29.56 "Hg0 mi
6:30 PM37 °FDrizzle. Fog.21 mph100%29.56 "Hg0 mi
5:30 PM39 °FDrizzle. Fog.30 mph100%29.55 "Hg0 mi
4:30 PM39 °FDrizzle. Fog.23 mph100%29.56 "Hg0 mi
3:30 PM37 °FDrizzle. Fog.21 mph100%29.58 "Hg0 mi
2:30 PM39 °FLight rain. Fog.23 mph100%29.58 "Hg1 mi
1:30 PM37 °FLight rain. Fog.20 mph100%29.59 "Hg0 mi
12:30 PM37 °FDrizzle. Fog.20 mph100%29.58 "Hg0 mi
11:30 AM39 °FDrizzle. Fog.24 mph100%29.58 "Hg0 mi
10:30 AM39 °FDrizzle. Fog.25 mph100%29.58 "Hg0 mi
9:30 AM39 °FDrizzle. Fog.26 mph100%29.56 "Hg0 mi
8:30 AM39 °FDrizzle. Fog.21 mph100%29.57 "Hg0 mi
7:30 AM39 °FLight rain. Fog.23 mph100%29.56 "Hg0 mi
6:30 AM39 °FLight rain. Fog.18 mph100%29.56 "Hg0 mi
5:30 AM39 °FLight rain. Fog.18 mph100%29.56 "Hg0 mi
4:30 AM41 °FRain. Fog.14 mph100%29.57 "Hg1 mi
Weather by CustomWeather, © 2015

See weather overviewHow to use our weather pages